Weather History for Alamosa, CO

Change the Weather History Date:

Tuesday, March 20, 2012

  Actual Average Record
Temperature  
Mean Temperature 34 °F 35 °F  
Max Temperature 46 °F 52 °F 72 °F (2004)
Min Temperature 22 °F 18 °F -5 °F (1964)
Degree Days  
Heating Degree Days 31 30  
Month to date heating degree days 621 661  
Since 1 July heating degree days 6725 6990  
Cooling Degree Days 0 0  
Month to date cooling degree days 0 0  
Year to date cooling degree days 0 0  
Moisture  
Dew Point 5 °F    
Average Humidity 38    
Maximum Humidity 62    
Minimum Humidity 13    
Precipitation  
Precipitation 0.00 in 0.02 in 0.29 in (1970)
Month to date precipitation 0.10 0.32  
Year to date precipitation 0.44 0.84  
Snow  
Snow 0.00 in 0.10 in 4.80 in (1970)
Month to date snowfall 0.7 3.1  
Since 1 July snowfall 17.5 21.2  
Snow Depth T in    
Sea Level Pressure  
Sea Level Pressure 29.85 in    
Wind  
Wind Speed 12 mph (North)    
Max Wind Speed 24 mph    
Max Gust Speed 31 mph    
Visibility 10 miles    
Events      
T = Trace of Precipitation, MM = Missing Value Source: NWS Daily Summary

Daily Weather History Graph

Daily Weather History Graph

Search for Another Location

Airport:

Trip Planner

Search our weather history database for the weather conditions in past years. The results will help you decide how hot, cold, wet, or windy it might be!

Date:

Astronomy

Mar. 20, 2012 Rise Set
Actual Time 7:06 AM MDT 7:15 PM MDT
Civil Twilight 6:40 AM MDT 7:41 PM MDT
Nautical Twilight 6:09 AM MDT 8:12 PM MDT
Astronomical Twilight 5:38 AM MDT 8:43 PM MDT
Moon 5:48 AM MDT 5:47 PM MDT
Length of Visible Light 13h 01m
Length of Day
12h 09m
Waning Crescent, 3% of the Moon is Illuminated
Mar 20
Waning Crescent
Mar 22
New
Mar 30
First Quarter
Apr 6
Full
Apr 13
Last Quarter

Hourly Weather History & Observations

Time (MDT) Temp. Windchill Dew Point Humidity Pressure Visibility Wind Dir Wind Speed Gust Speed Precip Events Conditions
12:52 AM 25.0 °F 15.5 °F 14.0 °F 63% 29.66 in 10.0 mi North 9.2 mph - N/A   Overcast
1:52 AM 26.1 °F 12.7 °F 10.0 °F 51% 29.66 in 10.0 mi NNW 18.4 mph 25.3 mph N/A   Overcast
2:52 AM 26.1 °F 13.1 °F 9.0 °F 49% 29.67 in 10.0 mi NNW 17.3 mph 21.9 mph N/A   Overcast
3:52 AM 25.0 °F 12.2 °F 8.1 °F 49% 29.68 in 10.0 mi NNW 16.1 mph 25.3 mph N/A   Mostly Cloudy
4:52 AM 25.0 °F 12.2 °F 8.1 °F 49% 29.71 in 10.0 mi NNW 16.1 mph 24.2 mph N/A   Mostly Cloudy
5:52 AM 24.1 °F 9.8 °F 6.1 °F 46% 29.81 in 10.0 mi NNW 19.6 mph 24.2 mph N/A   Overcast
6:52 AM 23.0 °F 9.6 °F 5.0 °F 46% 29.84 in 10.0 mi NNW 16.1 mph 25.3 mph N/A   Clear
7:52 AM 21.2 °F 9.5 °F 6.8 °F 54% 29.82 in 10.0 mi NNW 11.5 mph - N/A   Clear
8:52 AM 25.0 °F 12.6 °F 6.1 °F 45% 29.94 in 10.0 mi NNW 15.0 mph 23.0 mph N/A   Overcast
9:52 AM 28.9 °F 15.8 °F 7.0 °F 40% 29.94 in 10.0 mi NNW 20.7 mph 26.5 mph N/A   Mostly Cloudy
10:52 AM 35.1 °F 24.8 °F 5.0 °F 28% 29.92 in 10.0 mi North 17.3 mph 29.9 mph N/A   Clear
11:52 AM 39.0 °F 30.6 °F 3.0 °F 22% 29.88 in 10.0 mi NNW 15.0 mph 23.0 mph N/A   Clear
12:52 PM 43.0 °F 36.4 °F -0.0 °F 17% 29.86 in 10.0 mi NE 12.7 mph 18.4 mph N/A   Partly Cloudy
1:52 PM 44.6 °F 38.8 °F -2.2 °F 14% 29.86 in 10.0 mi NNE 11.5 mph 20.7 mph N/A   Scattered Clouds
2:52 PM 43.0 °F 40.3 °F -2.0 °F 15% 29.80 in 10.0 mi ENE 4.6 mph 18.4 mph N/A   Mostly Cloudy
3:52 PM 42.8 °F 36.6 °F -4.0 °F 14% 29.85 in 10.0 mi NNE 11.5 mph 25.3 mph N/A   Mostly Cloudy
4:52 PM 42.1 °F 34.9 °F -4.0 °F 14% 29.83 in 10.0 mi North 13.8 mph 25.3 mph N/A   Overcast
5:52 PM 43.0 °F 35.4 °F -5.1 °F 13% 29.84 in 10.0 mi North 16.1 mph 27.6 mph N/A   Mostly Cloudy
6:52 PM 39.0 °F 32.8 °F 3.9 °F 23% 29.91 in 10.0 mi NE 9.2 mph - N/A   Mostly Cloudy
7:52 PM 33.1 °F 26.9 °F 7.0 °F 34% 29.96 in 10.0 mi East 6.9 mph - N/A   Clear
8:52 PM 30.9 °F - 7.0 °F 37% 30.00 in 10.0 mi Calm Calm - N/A   Clear
9:52 PM 28.0 °F - 7.0 °F 41% 30.01 in 10.0 mi Calm Calm - N/A   Clear
10:52 PM 24.1 °F 19.7 °F 6.1 °F 46% 30.03 in 10.0 mi NW 3.5 mph - N/A   Clear
11:52 PM 26.1 °F 17.6 °F 8.1 °F 47% 30.00 in 10.0 mi North 8.1 mph - N/A   Clear